| time (UTC) | temp C | wind direction | speed KPH | gust KPH | rain 1hr cm | rain 24hr cm | rain mn cm | humidity % | barometer mb |
| 20260504081550 | 8 | 0.0 | 0.0 | 0.00 | 0.00 | 0.00 | 78 | 1016.4 | |
| 20260504044547 | 10 | 0.0 | 3.2 | 0.00 | 0.00 | 0.00 | 74 | 1015.7 | |
| 20260504043004 | 10 | 0.0 | 3.2 | 0.00 | 0.00 | 0.00 | 72 | 1015.7 | |
| 20260504041534 | 10 | 0.0 | 3.2 | 0.00 | 0.00 | 0.00 | 71 | 1015.7 | |
| 20260504040003 | 10 | 0.0 | 3.2 | 0.00 | 0.00 | 0.00 | 72 | 1015.6 | |
| 20260504034516 | 10 | 0.0 | 1.6 | 0.00 | 0.00 | 0.00 | 75 | 1015.5 | |
| 20260504033048 | 9 | 0.0 | 1.6 | 0.00 | 0.00 | 0.00 | 74 | 1015.6 | |
| 20260504031605 | 9 | 0.0 | 1.6 | 0.00 | 0.00 | 0.00 | 72 | 1015.4 | |
| 20260504030049 | 9 | 0.0 | 1.6 | 0.00 | 0.00 | 0.00 | 70 | 1015.4 | |
| 20260504024525 | 9 | 0.0 | 1.6 | 0.00 | 0.00 | 0.00 | 68 | 1015.5 | |
| 20260504023031 | 9 | 0.0 | 0.0 | 0.00 | 0.00 | 0.00 | 65 | 1015.4 | |
| 20260504021600 | 10 | 0.0 | 1.6 | 0.00 | 0.00 | 0.00 | 61 | 1015.4 | |
| 20260504020048 | 10 | 0.0 | 1.6 | 0.00 | 0.00 | 0.00 | 61 | 1015.2 | |
| 20260504014537 | 10 | 0.0 | 1.6 | 0.00 | 0.00 | 0.00 | 58 | 1015.2 | |
| 20260504013022 | 10 | 0.0 | 1.6 | 0.00 | 0.00 | 0.00 | 58 | 1015.0 | |
| 20260504011540 | 11 | 0.0 | 0.0 | 0.00 | 0.00 | 0.00 | 58 | 1015.0 | |
| 20260504010048 | 11 | 0.0 | 0.0 | 0.00 | 0.00 | 0.00 | 55 | 1014.9 | |
| 20260504004537 | 11 | 0.0 | 1.6 | 0.00 | 0.00 | 0.00 | 53 | 1014.6 | |
| 20260504003102 | 12 | 0.0 | 1.6 | 0.00 | 0.00 | 0.00 | 49 | 1014.5 | |
| 20260504001523 | 12 | 0.0 | 1.6 | 0.00 | 0.00 | 0.00 | 45 | 1014.3 | |
| 20260504000059 | 13 | 0.0 | 1.6 | 0.00 | 0.00 | 0.00 | 43 | 1014.2 | |
| 20260503234541 | 13 | 0.0 | 3.2 | 0.00 | 0.00 | 0.00 | 41 | 1014.1 | |
| 20260503233029 | 13 | 0.0 | 4.8 | 0.00 | 0.00 | 0.00 | 41 | 1013.9 | |
| 20260503231522 | 13 | 1.6 | 8.0 | 0.00 | 0.00 | 0.00 | 41 | 1013.9 | |
| 20260503230005 | 14 | 0.0 | 8.0 | 0.00 | 0.00 | 0.00 | 39 | 1013.7 | |
| 20260503224531 | 14 | 0.0 | 9.7 | 0.00 | 0.00 | 0.00 | 39 | 1013.6 | |
| 20260503223103 | 14 | 1.6 | 9.7 | 0.00 | 0.00 | 0.00 | 38 | 1013.5 | |
| 20260503221505 | 15 | 3.2 | 14.5 | 0.00 | 0.00 | 0.00 | 38 | 1013.6 | |
| 20260503220036 | 15 | 3.2 | 14.5 | 0.00 | 0.00 | 0.00 | 37 | 1013.5 | |
| 20260503214519 | 15 | 6.4 | 24.1 | 0.00 | 0.00 | 0.00 | 37 | 1013.4 | |
| 20260503213031 | 15 | 3.2 | 11.3 | 0.00 | 0.00 | 0.00 | 39 | 1013.1 | |
| 20260503211516 | 15 | 0.0 | 19.3 | 0.00 | 0.00 | 0.00 | 38 | 1013.0 | |
| 20260503204528 | 15 | 3.2 | 11.3 | 0.00 | 0.00 | 0.00 | 38 | 1013.2 | |
| 20260503203041 | 15 | 1.6 | 11.3 | 0.00 | 0.00 | 0.00 | 39 | 1013.2 | |
| 20260503201525 | 14 | 3.2 | 19.3 | 0.00 | 0.00 | 0.00 | 39 | 1013.4 | |
| 20260503200050 | 15 | 6.4 | 16.1 | 0.00 | 0.00 | 0.00 | 39 | 1013.3 | |
| 20260503194542 | 14 | 3.2 | 14.5 | 0.00 | 0.00 | 0.00 | 40 | 1013.1 | |
| 20260503193037 | 14 | 3.2 | 11.3 | 0.00 | 0.00 | 0.00 | 40 | 1013.5 | |
| 20260503191617 | 14 | 1.6 | 19.3 | 0.00 | 0.00 | 0.00 | 42 | 1013.4 | |
| 20260503190031 | 14 | 3.2 | 20.9 | 0.00 | 0.00 | 0.00 | 43 | 1013.7 | |
| 20260503184601 | 13 | 3.2 | 16.1 | 0.00 | 0.00 | 0.00 | 44 | 1013.8 | |
| 20260503183011 | 14 | 4.8 | 16.1 | 0.00 | 0.00 | 0.00 | 43 | 1013.9 | |
| 20260503181548 | 14 | 4.8 | 14.5 | 0.00 | 0.00 | 0.00 | 42 | 1013.7 | |
| 20260503180020 | 13 | 3.2 | 12.9 | 0.00 | 0.00 | 0.00 | 42 | 1013.8 | |
| 20260503174506 | 13 | 4.8 | 16.1 | 0.00 | 0.00 | 0.00 | 42 | 1013.8 | |
| 20260503173055 | 13 | 4.8 | 16.1 | 0.00 | 0.00 | 0.00 | 42 | 1013.9 | |
| 20260503171536 | 13 | 1.6 | 16.1 | 0.00 | 0.00 | 0.00 | 45 | 1014.0 |